Find Starlink 32258

NORAD ID: 60939 Int'l Des: 2024-155 Owner: SPXS Country: US Constellation: starlink operational
LEOCIRCULAR

現在のビュー

3D地球を読み込み中...

About Starlink 32258

Starlink 32258 (NORAD 60939) is a starlink constellation satellite (v2 mini) launched Aug 31, 2024 by SPXS of US. It operates in LEO, CIRCULAR orbit with a mass of 730.00 kg.

次回通過

Passes for default location (London). Set your location on the main map for personalized predictions.

高度履歴

Loading altitude history...

軌道要素

1 60939U 24155R 26237.88937866 .00001527 00000-0 56344-4 0 9990
2 60939 53.1583 61.0897 0001292 91.7335 268.3815 15.34385282112230
Epoch: Aug 25, 2026 • Age: 14 hours

現在のステータス

高度 478.4 km
遠地点 / 近地点 N/A
速度 7.63 km/s
衛星直下点 -44.22°S, 130.08°W
打ち上げ日 Aug 31, 2024
運用期間 1.9 years
タイプ internet

技術仕様

分類 Payload
質量 730.00 kg
乾燥質量 700.00 kg
総質量 730.00 kg
長さ 0.30 m
直径 4.10 m
スパン 29.00 m
形状 Box + pan
製造者 SPXS
バスタイプ Starlink V2M
フェーズステータス In Orbit
所有者/国 SPXS/US

Most Searched